Immokalee Regional Airport [I, FL

12:43 PM EDT on October 18, 2017 (GMT -0400)
Immokalee

Weather History for KIMM - November, 2013

Change the Weather History Date:

Thursday, November 7, 2013

  Actual Average (KRSW) Record (KRSW)
Temperature  
Mean Temperature 76 °F -  
Max Temperature 89 °F 80 °F 91 °F (1943)
Min Temperature 64 °F 61 °F 47 °F (1954)
Cooling Degree Days 12    
Growing Degree Days 26 (Base 50)    
Moisture  
Dew Point 69 °F    
Average Humidity 73    
Maximum Humidity 100    
Minimum Humidity 43    
Precipitation  
Precipitation 0.00 in - - ()
Sea Level Pressure  
Sea Level Pressure 30.01 in    
Wind  
Wind Speed 2 mph ()    
Max Wind Speed 13 mph    
Max Gust Speed -    
Visibility 9.5 miles    
Events      
Averages and records for this station are not official NWS values.
T = Trace of Precipitation, MM = Missing Value Source: Averaged Metar Reports

Daily Weather History Graph

Daily Weather History Graph

Search for Another Location

Airport or City:

Trip Planner

Search our weather history database for the weather conditions in past years. The results will help you decide how hot, cold, wet, or windy it might be!

Date:

Astronomy

Nov. 07, 2013 Rise Set
Actual Time 6:38 AM EST 5:39 PM EST
Civil Twilight 6:14 AM EST 6:03 PM EST
Nautical Twilight 5:47 AM EST 6:30 PM EST
Astronomical Twilight 5:19 AM EST 6:58 PM EST
Moon 10:41 AM EST (11/7) 9:52 PM EST (11/7)
Length of Visible Light 11h 48m
Length of Day
11h 00m
Waxing Crescent, 22% of the Moon is Illuminated
Nov 7
Waxing Crescent
Nov 10
First Quarter
Nov 17
Full
Nov 25
Last Quarter
Dec 2
New

Hourly Weather History & Observations

Time (EST) Temp. Heat Index Dew Point Humidity Pressure Visibility Wind Dir Wind Speed Gust Speed Precip Events Conditions
12:15 AM 64.4 °F - - N/A% 30.05 in 10.0 mi North 3.5 mph - 0.00 in   Clear
12:35 AM 66.2 °F - - N/A% 30.04 in 10.0 mi Calm Calm - 0.00 in   Clear
12:55 AM 64.4 °F - - N/A% 30.04 in 10.0 mi Calm Calm - 0.00 in   Clear
1:15 AM 64.4 °F - - N/A% 30.04 in 10.0 mi Calm Calm - 0.00 in   Clear
1:35 AM 64.4 °F - - N/A% 30.03 in 10.0 mi Calm Calm - 0.00 in   Clear
1:55 AM 64.4 °F - - N/A% 30.02 in 10.0 mi Calm Calm - 0.00 in   Clear
2:35 AM 64.4 °F - - N/A% 30.01 in 10.0 mi Calm Calm - 0.00 in   Clear
2:55 AM 64.4 °F - - N/A% 30.00 in 10.0 mi Calm Calm - 0.00 in   Clear
3:15 AM 64.4 °F - - N/A% 30.00 in 8.0 mi North 3.5 mph - 0.00 in   Clear
3:35 AM 64.4 °F - - N/A% 30.00 in 8.0 mi Calm Calm - 0.00 in   Clear
3:55 AM 64.4 °F - - N/A% 30.00 in 6.0 mi Calm Calm - 0.00 in   Clear
4:15 AM 64.4 °F - - N/A% 30.00 in 7.0 mi Calm Calm - 0.00 in   Clear
4:35 AM 64.4 °F - - N/A% 30.00 in 8.0 mi Calm Calm - 0.00 in   Clear
4:55 AM 64.4 °F - - N/A% 30.00 in 8.0 mi Calm Calm - 0.00 in   Clear
5:15 AM 66.2 °F - - N/A% 30.00 in 9.0 mi Calm Calm - 0.00 in   Clear
5:35 AM 66.2 °F - - N/A% 30.00 in 10.0 mi Calm Calm - 0.00 in   Clear
5:55 AM 66.2 °F - - N/A% 30.00 in 10.0 mi Calm Calm - 0.00 in   Clear
6:15 AM 64.4 °F - - N/A% 30.01 in 10.0 mi Calm Calm - 0.00 in   Clear
6:35 AM 64.4 °F - - N/A% 30.02 in 7.0 mi Calm Calm - 0.00 in   Clear
6:55 AM 66.2 °F - - N/A% 30.02 in 5.0 mi Calm Calm - 0.00 in   Clear
7:15 AM 66.2 °F - - N/A% 30.03 in 5.0 mi Calm Calm - 0.00 in   Clear
7:35 AM 66.2 °F - - N/A% 30.03 in 8.0 mi Calm Calm - 0.00 in   Clear
7:55 AM 68.0 °F - - N/A% 30.04 in 10.0 mi Calm Calm - 0.00 in   Clear
8:15 AM 68.0 °F - - N/A% 30.04 in 9.0 mi Calm Calm - 0.00 in   Clear
8:35 AM 69.8 °F - - N/A% 30.04 in 10.0 mi Calm Calm - 0.00 in   Clear
8:55 AM 73.4 °F - 73.4 °F 100% 30.05 in 10.0 mi Calm Calm - 0.00 in   Clear
9:15 AM 78.8 °F - 77.0 °F 94% 30.06 in 10.0 mi NNE 6.9 mph - 0.00 in   Clear
9:35 AM 80.6 °F 86.2 °F 75.2 °F 84% 30.06 in 10.0 mi NE 6.9 mph - 0.00 in   Clear
9:55 AM 82.4 °F 89.5 °F 75.2 °F 79% 30.06 in 10.0 mi NNE 8.1 mph - 0.00 in   Clear
10:15 AM 84.2 °F 90.9 °F 73.4 °F 70% 30.06 in 10.0 mi ENE 8.1 mph - 0.00 in   Clear
10:35 AM 82.4 °F 87.2 °F 71.6 °F 70% 30.05 in 10.0 mi NNE 8.1 mph - 0.00 in   Clear
10:55 AM 84.2 °F 89.6 °F 71.6 °F 66% 30.05 in 10.0 mi NNE 6.9 mph - 0.00 in   Clear
11:15 AM 84.2 °F 89.6 °F 71.6 °F 66% 30.04 in 10.0 mi NE 6.9 mph - 0.00 in   Partly Cloudy
11:35 AM 87.8 °F 92.6 °F 69.8 °F 55% 30.04 in 10.0 mi NE 9.2 mph - 0.00 in   Scattered Clouds
11:55 AM 87.8 °F 90.4 °F 66.2 °F 49% 30.03 in 10.0 mi NE 8.1 mph - 0.00 in   Scattered Clouds
12:15 PM 87.8 °F 90.4 °F 66.2 °F 49% 30.02 in 10.0 mi North 5.8 mph - 0.00 in   Scattered Clouds
12:35 PM 86.0 °F 88.2 °F 66.2 °F 51% 30.01 in 10.0 mi Calm Calm - 0.00 in   Partly Cloudy
12:55 PM 86.0 °F 88.2 °F 66.2 °F 51% 30.00 in 10.0 mi North 6.9 mph - 0.00 in   Scattered Clouds
1:15 PM 87.8 °F 90.4 °F 66.2 °F 49% 30.00 in 10.0 mi North 4.6 mph - 0.00 in   Clear
1:35 PM 89.6 °F 91.1 °F 64.4 °F 43% 29.98 in 10.0 mi NE 8.1 mph - 0.00 in   Clear
1:55 PM 84.2 °F 85.6 °F 64.4 °F 51% 29.98 in 10.0 mi North 5.8 mph - 0.00 in   Scattered Clouds
2:15 PM 87.8 °F 90.4 °F 66.2 °F 49% 29.97 in 10.0 mi NW 3.5 mph - 0.00 in   Partly Cloudy
2:35 PM 89.6 °F 92.2 °F 66.2 °F 46% 29.96 in 10.0 mi NNW 5.8 mph - 0.00 in   Partly Cloudy
2:55 PM 84.2 °F 86.6 °F 66.2 °F 55% 29.96 in 10.0 mi North 6.9 mph - 0.00 in   Partly Cloudy
3:15 PM 89.6 °F 92.2 °F 66.2 °F 46% 29.96 in 9.0 mi NE 12.7 mph - 0.00 in   Scattered Clouds
3:35 PM 86.0 °F 88.2 °F 66.2 °F 51% 29.96 in 10.0 mi North 8.1 mph - 0.00 in   Scattered Clouds
3:55 PM 84.2 °F 86.6 °F 66.2 °F 55% 29.96 in 10.0 mi NNE 9.2 mph - 0.00 in   Scattered Clouds
4:15 PM 82.4 °F 84.6 °F 66.2 °F 58% 29.96 in 10.0 mi NNW 6.9 mph - 0.00 in   Scattered Clouds
4:35 PM 82.4 °F 85.4 °F 68.0 °F 62% 29.97 in 10.0 mi North 8.1 mph - 0.00 in   Clear
4:55 PM 80.6 °F 83.2 °F 68.0 °F 65% 29.97 in 10.0 mi NNW 8.1 mph - 0.00 in   Clear
5:15 PM 78.8 °F - 69.8 °F 74% 29.98 in 10.0 mi NNW 4.6 mph - 0.00 in   Clear
5:55 PM 75.2 °F - 71.6 °F 89% 29.98 in 10.0 mi NNW 4.6 mph - 0.00 in   Clear
6:15 PM 75.2 °F - 71.6 °F 89% 29.98 in 10.0 mi NNW 3.5 mph - 0.00 in   Clear
6:35 PM 73.4 °F - 71.6 °F 94% 29.99 in 10.0 mi NNW 3.5 mph - 0.00 in   Clear
6:55 PM 73.4 °F - 73.4 °F 100% 29.99 in 10.0 mi Calm Calm - 0.00 in   Clear
7:15 PM 71.6 °F - 71.6 °F 100% 29.99 in 10.0 mi Calm Calm - 0.00 in   Clear
7:35 PM 71.6 °F - 71.6 °F 100% 30.00 in 10.0 mi Calm Calm - 0.00 in   Clear
7:55 PM 71.6 °F - 71.6 °F 100% 30.00 in 10.0 mi Calm Calm - 0.00 in   Clear
8:15 PM 69.8 °F - 69.8 °F 100% 30.01 in 9.0 mi Calm Calm - 0.00 in   Clear
8:35 PM 69.8 °F - 69.8 °F 100% 30.01 in 10.0 mi Calm Calm - 0.00 in   Clear
8:55 PM 69.8 °F - 69.8 °F 100% 30.01 in 10.0 mi Calm Calm - 0.00 in   Clear
9:15 PM 69.8 °F - 69.8 °F 100% 30.01 in 10.0 mi North 3.5 mph - 0.00 in   Clear
9:35 PM 69.8 °F - 69.8 °F 100% 30.01 in 10.0 mi North 5.8 mph - 0.00 in   Clear
9:55 PM 69.8 °F - 69.8 °F 100% 30.01 in 10.0 mi North 4.6 mph - 0.00 in   Clear
10:15 PM 68.0 °F - - N/A% 30.01 in 10.0 mi Calm Calm - 0.00 in   Clear
10:35 PM 68.0 °F - - N/A% 30.01 in 9.0 mi Calm Calm - 0.00 in   Clear
10:55 PM 66.2 °F - - N/A% 30.01 in 9.0 mi Calm Calm - 0.00 in   Clear
11:15 PM 68.0 °F - - N/A% 30.01 in 10.0 mi Calm Calm - 0.00 in   Clear
11:35 PM 66.2 °F - - N/A% 30.01 in 10.0 mi North 3.5 mph - 0.00 in   Clear
11:55 PM 66.2 °F - - N/A% 30.01 in 10.0 mi Calm Calm - 0.00 in   Clear